^^
No Wait Weather (KNEBELLE1) Station Historical Data
 
Daily Summary for September 21, 2019 Units:  English    Metric   Both
Daily Weekly Monthly Yearly Custom
  Current: High: Low: Average:
Temperature: 65.3 °F 83.4 °F 65.3 °F 75.2 °F
Dew Point: 62.6 °F 72.41 °F 62.48 °F 69.7 °F
Humidity: 91% 95% 65% 84%
Wind Speed: 0mph 7mph 0mph 0.8mph
Wind Gust: 0mph 13mph - -
WindCalm - - SW
Pressure: 29.69 in 29.71 in 29.61 in -
Precipitation: 0.05 in      
Historical Graphs
 
 
Tabular Data for September 21, 2019
Time Temperature Dew Point Pressure Wind Wind Speed Wind Gust Humidity Rainfall Rate (Hourly) solar
00:00 72.8 °F 68.69 °F 29.69 in Calm   6 mph 87% 0 in WeatherCatV3.04B91 W/m2
00:05 72.8 °F 69.03 °F 29.69 in Calm     88% 0 in WeatherCatV3.04B91 W/m2
00:10 72.7 °F 68.93 °F 29.69 in Calm   5 mph 88% 0 in WeatherCatV3.04B91 W/m2
00:15 72.7 °F 68.93 °F 29.69 in Calm   5 mph 88% 0 in WeatherCatV3.04B91 W/m2
00:24 72.7 °F 68.6 °F 29.69 in Calm   4 mph 87% 0 in WeatherCatV3.04B91 W/m2
00:25 72.7 °F 68.6 °F 29.69 in Calm   5 mph 87% 0 in WeatherCatV3.04B91 W/m2
00:30 72.8 °F 68.69 °F 29.69 in Calm   6 mph 87% 0 in WeatherCatV3.04B91 W/m2
00:35 72.8 °F 68.69 °F 29.69 in Calm   9 mph 87% 0 in WeatherCatV3.04B91 W/m2
00:40 72.7 °F 68.6 °F 29.69 in Calm   3 mph 87% 0 in WeatherCatV3.04B91 W/m2
00:45 72.7 °F 68.6 °F 29.69 in Calm   7 mph 87% 0 in WeatherCatV3.04B91 W/m2
00:50 72.7 °F 68.93 °F 29.69 in SW 4 mph 4 mph 88% 0 in WeatherCatV3.04B91 W/m2
00:55 72.7 °F 68.93 °F 29.69 in SW 6 mph 9 mph 88% 0 in WeatherCatV3.04B91 W/m2
01:00 72.7 °F 68.93 °F 29.69 in SSW 2 mph 10 mph 88% 0 in WeatherCatV3.04B91 W/m2
01:05 72.7 °F 68.93 °F 29.69 in SSW 6 mph 6 mph 88% 0 in WeatherCatV3.04B91 W/m2
01:10 72.7 °F 68.93 °F 29.69 in WSW 6 mph 7 mph 88% 0 in WeatherCatV3.04B91 W/m2
01:15 72.7 °F 68.93 °F 29.68 in SW 1 mph 5 mph 88% 0 in WeatherCatV3.04B91 W/m2
01:20 72.5 °F 68.73 °F 29.68 in Calm   5 mph 88% 0 in WeatherCatV3.04B91 W/m2
01:25 72.5 °F 69.06 °F 29.68 in Calm   1 mph 89% 0 in WeatherCatV3.04B91 W/m2
01:30 72.5 °F 69.06 °F 29.68 in Calm   5 mph 89% 0 in WeatherCatV3.04B91 W/m2
01:35 72.5 °F 69.06 °F 29.68 in Calm   3 mph 89% 0 in WeatherCatV3.04B91 W/m2
01:40 72.5 °F 69.06 °F 29.68 in Calm   6 mph 89% 0 in WeatherCatV3.04B91 W/m2
01:45 72.5 °F 69.06 °F 29.67 in Calm   11 mph 89% 0 in WeatherCatV3.04B91 W/m2
01:50 72.7 °F 69.26 °F 29.67 in Calm   2 mph 89% 0 in WeatherCatV3.04B91 W/m2
01:55 72.7 °F 69.26 °F 29.67 in Calm   6 mph 89% 0 in WeatherCatV3.04B91 W/m2
02:00 72.7 °F 69.26 °F 29.67 in Calm   5 mph 89% 0 in WeatherCatV3.04B91 W/m2
02:05 72.7 °F 69.26 °F 29.67 in Calm   1 mph 89% 0 in WeatherCatV3.04B91 W/m2
02:10 72.7 °F 69.26 °F 29.67 in WSW 1 mph 5 mph 89% 0 in WeatherCatV3.04B91 W/m2
02:15 72.7 °F 69.26 °F 29.67 in Calm   5 mph 89% 0 in WeatherCatV3.04B91 W/m2
02:20 72.7 °F 69.26 °F 29.67 in Calm   4 mph 89% 0 in WeatherCatV3.04B91 W/m2
02:25 72.7 °F 69.26 °F 29.67 in SW 2 mph 3 mph 89% 0 in WeatherCatV3.04B91 W/m2
02:30 72.7 °F 69.26 °F 29.66 in SSW 1 mph 1 mph 89% 0 in WeatherCatV3.04B91 W/m2
02:35 72.7 °F 69.26 °F 29.66 in SW 2 mph 4 mph 89% 0 in WeatherCatV3.04B91 W/m2
02:40 72.7 °F 69.26 °F 29.66 in WSW 2 mph 6 mph 89% 0 in WeatherCatV3.04B91 W/m2
02:45 72.7 °F 69.26 °F 29.66 in Calm   3 mph 89% 0 in WeatherCatV3.04B91 W/m2
02:50 72.8 °F 69.36 °F 29.66 in Calm   3 mph 89% 0 in WeatherCatV3.04B91 W/m2
02:55 72.8 °F 69.36 °F 29.66 in SSW 1 mph 3 mph 89% 0 in WeatherCatV3.04B91 W/m2
03:00 72.8 °F 69.36 °F 29.66 in Calm   3 mph 89% 0 in WeatherCatV3.04B91 W/m2
03:05 72.8 °F 69.36 °F 29.66 in Calm   3 mph 89% 0 in WeatherCatV3.04B91 W/m2
03:10 72.8 °F 69.36 °F 29.66 in Calm   5 mph 89% 0 in WeatherCatV3.04B91 W/m2
03:15 72.8 °F 69.36 °F 29.65 in Calm   3 mph 89% 0 in WeatherCatV3.04B91 W/m2
03:20 73 °F 69.56 °F 29.65 in Calm     89% 0 in WeatherCatV3.04B91 W/m2
03:25 73 °F 69.56 °F 29.65 in Calm   3 mph 89% 0 in WeatherCatV3.04B91 W/m2
03:30 73 °F 69.56 °F 29.65 in SW 2 mph 3 mph 89% 0 in WeatherCatV3.04B91 W/m2
03:35 73 °F 69.56 °F 29.65 in SW 1 mph 4 mph 89% 0 in WeatherCatV3.04B91 W/m2
03:40 73 °F 69.56 °F 29.65 in Calm   5 mph 89% 0 in WeatherCatV3.04B91 W/m2
03:45 73 °F 69.88 °F 29.65 in Calm   7 mph 90% 0 in WeatherCatV3.04B91 W/m2
03:50 73 °F 69.88 °F 29.65 in Calm   5 mph 90% 0 in WeatherCatV3.04B91 W/m2
03:55 73 °F 69.88 °F 29.65 in SW 3 mph 4 mph 90% 0 in WeatherCatV3.04B91 W/m2
04:00 73 °F 69.88 °F 29.65 in SW 2 mph 4 mph 90% 0 in WeatherCatV3.04B91 W/m2
04:05 72.8 °F 69.69 °F 29.65 in SW 4 mph 5 mph 90% 0 in WeatherCatV3.04B91 W/m2
04:10 72.8 °F 69.69 °F 29.65 in Calm     90% 0 in WeatherCatV3.04B91 W/m2
04:15 72.8 °F 70.01 °F 29.64 in Calm   1 mph 91% 0 in WeatherCatV3.04B91 W/m2
04:20 72.8 °F 70.01 °F 29.64 in SW 2 mph 7 mph 91% 0 in WeatherCatV3.04B91 W/m2
04:25 72.7 °F 69.91 °F 29.64 in SW 2 mph 4 mph 91% 0 in WeatherCatV3.04B91 W/m2
04:30 72.7 °F 70.23 °F 29.64 in Calm   7 mph 92% 0 in WeatherCatV3.04B91 W/m2
04:35 72.7 °F 70.23 °F 29.64 in SSW 2 mph 4 mph 92% 0 in WeatherCatV3.04B91 W/m2
04:40 72.5 °F 70.35 °F 29.64 in Calm   3 mph 93% 0 in WeatherCatV3.04B91 W/m2
04:45 72.5 °F 70.35 °F 29.64 in SW 3 mph 3 mph 93% 0 in WeatherCatV3.04B91 W/m2
04:50 72.3 °F 70.16 °F 29.64 in Calm   3 mph 93% 0 in WeatherCatV3.04B91 W/m2
04:55 72.1 °F 70.27 °F 29.64 in Calm   6 mph 94% 0 in WeatherCatV3.04B91 W/m2
05:00 72.1 °F 70.27 °F 29.64 in WSW 2 mph 6 mph 94% 0 in WeatherCatV3.04B91 W/m2
05:05 72.1 °F 70.27 °F 29.64 in Calm   3 mph 94% 0 in WeatherCatV3.04B91 W/m2
05:10 72.1 °F 70.58 °F 29.64 in SW 3 mph 4 mph 95% 0 in WeatherCatV3.04B91 W/m2
05:15 72.1 °F 70.58 °F 29.64 in Calm     95% 0 in WeatherCatV3.04B91 W/m2
05:20 72.1 °F 70.58 °F 29.64 in Calm     95% 0 in WeatherCatV3.04B91 W/m2
05:25 72.1 °F 70.58 °F 29.64 in Calm   2 mph 95% 0 in WeatherCatV3.04B91 W/m2
05:30 72.3 °F 70.78 °F 29.64 in WSW 2 mph 2 mph 95% 0 in WeatherCatV3.04B91 W/m2
05:35 72.3 °F 70.47 °F 29.64 in Calm   2 mph 94% 0 in WeatherCatV3.04B91 W/m2
05:40 72.3 °F 70.47 °F 29.64 in Calm   2 mph 94% 0 in WeatherCatV3.04B91 W/m2
05:45 72.5 °F 70.67 °F 29.64 in Calm   2 mph 94% 0 in WeatherCatV3.04B91 W/m2
05:50 72.5 °F 70.67 °F 29.64 in Calm   5 mph 94% 0 in WeatherCatV3.04B91 W/m2
05:55 72.7 °F 70.87 °F 29.64 in SSW 1 mph 4 mph 94% 0 in WeatherCatV3.04B91 W/m2
06:00 72.7 °F 70.55 °F 29.63 in WSW 3 mph 3 mph 93% 0 in WeatherCatV3.04B91 W/m2
06:05 72.8 °F 70.65 °F 29.63 in SSW 2 mph 3 mph 93% 0 in WeatherCatV3.04B91 W/m2
06:10 72.8 °F 70.65 °F 29.63 in Calm     93% 0 in WeatherCatV3.04B91 W/m2
06:15 73 °F 70.53 °F 29.64 in Calm   5 mph 92% 0 in WeatherCatV3.04B91 W/m2
06:20 73 °F 70.53 °F 29.64 in Calm   2 mph 92% 0 in WeatherCatV3.04B91 W/m2
06:25 72.8 °F 70.33 °F 29.64 in Calm   5 mph 92% 0 in WeatherCatV3.04B91 W/m2
06:30 72.8 °F 70.33 °F 29.63 in Calm   7 mph 92% 0 in WeatherCatV3.04B91 W/m2
06:35 72.8 °F 70.01 °F 29.63 in Calm   6 mph 91% 0 in WeatherCatV3.04B91 W/m2
06:40 72.8 °F 70.01 °F 29.63 in Calm     91% 0 in WeatherCatV3.04B91 W/m2
06:45 72.8 °F 70.01 °F 29.63 in Calm   5 mph 91% 0 in WeatherCatV3.04B91 W/m2
06:50 72.8 °F 70.01 °F 29.63 in SW 3 mph 3 mph 91% 0 in WeatherCatV3.04B91 W/m2
06:55 72.7 °F 69.91 °F 29.63 in SSW 5 mph 7 mph 91% 0 in WeatherCatV3.04B91 W/m2
07:00 72.7 °F 69.91 °F 29.63 in Calm   2 mph 91% 0 in WeatherCatV3.04B91 W/m2
07:05 72.7 °F 69.91 °F 29.63 in Calm     91% 0 in WeatherCatV3.04B91 W/m2
07:10 72.7 °F 69.91 °F 29.63 in Calm   3 mph 91% 0 in WeatherCatV3.04B91 W/m2
07:15 72.7 °F 69.91 °F 29.64 in WSW 3 mph 7 mph 91% 0 in WeatherCatV3.04B91 W/m2
07:20 72.7 °F 69.91 °F 29.64 in SW 4 mph 6 mph 91% 0 in WeatherCatV3.04B91 W/m2
07:25 72.7 °F 69.91 °F 29.64 in WSW 4 mph 6 mph 91% 0 in WeatherCatV3.04B91 W/m2
07:30 72.7 °F 69.91 °F 29.64 in SW 1 mph 6 mph 91% 0 in WeatherCatV3.04B91 W/m2
07:35 72.8 °F 69.69 °F 29.64 in SSW 2 mph 10 mph 90% 0 in WeatherCatV3.04B91 W/m2
07:40 72.8 °F 69.69 °F 29.64 in Calm   7 mph 90% 0 in WeatherCatV3.04B91 W/m2
07:45 73 °F 69.88 °F 29.65 in SW 1 mph 4 mph 90% 0 in WeatherCatV3.04B91 W/m2
07:50 73.2 °F 69.75 °F 29.65 in SW 4 mph 10 mph 89% 0 in WeatherCatV3.04B91 W/m2
07:55 73.2 °F 69.75 °F 29.65 in Calm   5 mph 89% 0 in WeatherCatV3.04B91 W/m2
08:00 73.3 °F 69.85 °F 29.64 in SSW 6 mph 9 mph 89% 0 in WeatherCatV3.04B91 W/m2
08:05 73.3 °F 69.52 °F 29.64 in Calm     88% 0 in WeatherCatV3.04B91 W/m2
08:10 73.3 °F 69.52 °F 29.64 in Calm   4 mph 88% 0 in WeatherCatV3.04B91 W/m2
08:15 73.3 °F 69.52 °F 29.65 in Calm   5 mph 88% 0 in WeatherCatV3.04B91 W/m2
08:20 73.3 °F 69.52 °F 29.65 in SW 2 mph 3 mph 88% 0 in WeatherCatV3.04B91 W/m2
08:25 73.3 °F 69.52 °F 29.65 in Calm   5 mph 88% 0 in WeatherCatV3.04B91 W/m2
08:30 73.3 °F 69.19 °F 29.64 in Calm   7 mph 87% 0 in WeatherCatV3.04B91 W/m2
08:35 73.3 °F 69.19 °F 29.64 in Calm   6 mph 87% 0 in WeatherCatV3.04B91 W/m2
08:40 73.2 °F 69.09 °F 29.64 in Calm   4 mph 87% 0 in WeatherCatV3.04B91 W/m2
08:45 73.2 °F 69.42 °F 29.65 in Calm   5 mph 88% 0 in WeatherCatV3.04B91 W/m2
08:50 73.2 °F 69.09 °F 29.65 in Calm   5 mph 87% 0 in WeatherCatV3.04B91 W/m2
08:55 73.2 °F 69.09 °F 29.65 in Calm   8 mph 87% 0 in WeatherCatV3.04B91 W/m2
09:00 73.2 °F 69.09 °F 29.65 in Calm   9 mph 87% 0 in WeatherCatV3.04B91 W/m2
09:05 73.2 °F 69.09 °F 29.65 in WSW 2 mph 7 mph 87% 0 in WeatherCatV3.04B91 W/m2
09:10 73.2 °F 69.09 °F 29.65 in Calm   6 mph 87% 0 in WeatherCatV3.04B91 W/m2
09:15 73.2 °F 69.09 °F 29.65 in Calm     87% 0 in WeatherCatV3.04B91 W/m2
09:20 73.2 °F 69.09 °F 29.65 in Calm   6 mph 87% 0 in WeatherCatV3.04B91 W/m2
09:25 73.2 °F 69.09 °F 29.65 in Calm   9 mph 87% 0 in WeatherCatV3.04B91 W/m2
09:30 73.2 °F 69.09 °F 29.66 in Calm     87% 0 in WeatherCatV3.04B91 W/m2
09:35 73.2 °F 68.75 °F 29.66 in SSW 2 mph 4 mph 86% 0 in WeatherCatV3.04B91 W/m2
09:40 73.2 °F 68.75 °F 29.66 in Calm   5 mph 86% 0 in WeatherCatV3.04B91 W/m2
09:45 73.2 °F 68.75 °F 29.66 in Calm   9 mph 86% 0 in WeatherCatV3.04B91 W/m2
09:50 73.2 °F 68.75 °F 29.66 in WSW 1 mph 6 mph 86% 0 in WeatherCatV3.04B91 W/m2
09:55 73.2 °F 68.75 °F 29.66 in Calm   5 mph 86% 0 in WeatherCatV3.04B91 W/m2
10:00 73.2 °F 68.75 °F 29.66 in SSW 1 mph 9 mph 86% 0 in WeatherCatV3.04B91 W/m2
10:05 73.2 °F 68.75 °F 29.66 in South 1 mph 6 mph 86% 0 in WeatherCatV3.04B91 W/m2
10:10 73.2 °F 68.75 °F 29.66 in Calm   11 mph 86% 0 in WeatherCatV3.04B91 W/m2
10:15 73.2 °F 68.75 °F 29.66 in Calm   5 mph 86% 0 in WeatherCatV3.04B91 W/m2
10:20 73.3 °F 68.85 °F 29.66 in Calm     86% 0 in WeatherCatV3.04B91 W/m2
10:25 73.5 °F 69.04 °F 29.66 in Calm     86% 0 in WeatherCatV3.04B91 W/m2
10:30 73.5 °F 69.04 °F 29.66 in Calm   7 mph 86% 0 in WeatherCatV3.04B91 W/m2
10:35 73.7 °F 69.24 °F 29.66 in Calm   1 mph 86% 0 in WeatherCatV3.04B91 W/m2
10:40 73.9 °F 69.09 °F 29.66 in Calm   2 mph 85% 0 in WeatherCatV3.04B91 W/m2
10:45 74 °F 69.19 °F 29.66 in SW 3 mph 3 mph 85% 0 in WeatherCatV3.04B91 W/m2
10:50 74.2 °F 69.39 °F 29.66 in Calm   5 mph 85% 0 in WeatherCatV3.04B91 W/m2
10:55 74.4 °F 69.24 °F 29.66 in SSW 4 mph 6 mph 84% 0 in WeatherCatV3.04B91 W/m2
11:00 74.4 °F 69.24 °F 29.65 in SW 1 mph 5 mph 84% 0 in WeatherCatV3.04B91 W/m2
11:05 74.4 °F 69.24 °F 29.65 in Calm   4 mph 84% 0 in WeatherCatV3.04B91 W/m2
11:10 74.4 °F 69.24 °F 29.65 in SW 2 mph 5 mph 84% 0 in WeatherCatV3.04B91 W/m2
11:15 74.4 °F 68.89 °F 29.65 in Calm   5 mph 83% 0 in WeatherCatV3.04B91 W/m2
11:20 74.6 °F 69.08 °F 29.65 in SW 1 mph 6 mph 83% 0 in WeatherCatV3.04B91 W/m2
11:25 74.7 °F 69.18 °F 29.65 in SW 3 mph 5 mph 83% 0 in WeatherCatV3.04B91 W/m2
11:30 74.7 °F 68.83 °F 29.64 in Calm     82% 0 in WeatherCatV3.04B91 W/m2
11:35 74.9 °F 69.02 °F 29.64 in SSW 1 mph 2 mph 82% 0 in WeatherCatV3.04B91 W/m2
11:40 74.9 °F 69.02 °F 29.64 in SSW 1 mph 4 mph 82% 0 in WeatherCatV3.04B91 W/m2
11:45 75.1 °F 69.22 °F 29.64 in South 2 mph 6 mph 82% 0 in WeatherCatV3.04B91 W/m2
11:50 75.3 °F 69.05 °F 29.64 in SSW 4 mph 7 mph 81% 0 in WeatherCatV3.04B91 W/m2
11:55 75.4 °F 69.15 °F 29.64 in Calm   7 mph 81% 0 in WeatherCatV3.04B91 W/m2
12:00 75.4 °F 68.79 °F 29.64 in SW 4 mph 7 mph 80% 0 in WeatherCatV3.04B91 W/m2
12:05 75.6 °F 68.98 °F 29.64 in SSW 2 mph 6 mph 80% 0 in WeatherCatV3.04B91 W/m2
12:10 75.8 °F 69.17 °F 29.64 in Calm   4 mph 80% 0 in WeatherCatV3.04B91 W/m2
12:15 76 °F 69.37 °F 29.63 in SW 7 mph 13 mph 80% 0 in WeatherCatV3.04B91 W/m2
12:20 76.1 °F 69.47 °F 29.63 in SSW 1 mph 6 mph 80% 0 in WeatherCatV3.04B91 W/m2
12:25 76.5 °F 69.49 °F 29.63 in Calm   4 mph 79% 0 in WeatherCatV3.04B91 W/m2
12:30 76.7 °F 69.68 °F 29.64 in Calm   4 mph 79% 0 in WeatherCatV3.04B91 W/m2
12:35 76.8 °F 69.4 °F 29.64 in SW 6 mph 8 mph 78% 0 in WeatherCatV3.04B91 W/m2
12:40 76.8 °F 69.4 °F 29.64 in SSW 3 mph 7 mph 78% 0 in WeatherCatV3.04B91 W/m2
12:45 77 °F 69.6 °F 29.64 in SSW 1 mph 4 mph 78% 0 in WeatherCatV3.04B91 W/m2
12:50 77 °F 69.22 °F 29.64 in SSW 3 mph 3 mph 77% 0 in WeatherCatV3.04B91 W/m2
12:55 77.2 °F 69.79 °F 29.64 in SSW 3 mph 3 mph 78% 0 in WeatherCatV3.04B91 W/m2
13:00 77.2 °F 69.41 °F 29.64 in SW 5 mph 7 mph 77% 0 in WeatherCatV3.04B91 W/m2
13:05 77.2 °F 69.41 °F 29.64 in Calm   5 mph 77% 0 in WeatherCatV3.04B91 W/m2
13:10 77 °F 69.22 °F 29.64 in SSW 1 mph 4 mph 77% 0 in WeatherCatV3.04B91 W/m2
13:15 77.2 °F 69.79 °F 29.64 in Calm     78% 0 in WeatherCatV3.04B91 W/m2
13:20 77.2 °F 69.79 °F 29.64 in Calm     78% 0 in WeatherCatV3.04B91 W/m2
13:25 77.2 °F 69.79 °F 29.64 in Calm   4 mph 78% 0 in WeatherCatV3.04B91 W/m2
13:30 77.4 °F 69.98 °F 29.64 in Calm   2 mph 78% 0 in WeatherCatV3.04B91 W/m2
13:35 77.4 °F 69.98 °F 29.64 in SW 2 mph 3 mph 78% 0 in WeatherCatV3.04B91 W/m2
13:40 77.4 °F 69.98 °F 29.64 in SSW 2 mph 2 mph 78% 0 in WeatherCatV3.04B91 W/m2
13:45 77.4 °F 69.61 °F 29.64 in SW 4 mph 7 mph 77% 0 in WeatherCatV3.04B91 W/m2
13:50 77.4 °F 69.61 °F 29.64 in Calm   6 mph 77% 0 in WeatherCatV3.04B91 W/m2
13:55 77.6 °F 70.18 °F 29.64 in Calm     78% 0 in WeatherCatV3.04B91 W/m2
14:00 77.6 °F 69.8 °F 29.64 in Calm   3 mph 77% 0 in WeatherCatV3.04B91 W/m2
14:05 77.6 °F 69.8 °F 29.64 in Calm     77% 0 in WeatherCatV3.04B91 W/m2
14:10 77.6 °F 70.18 °F 29.64 in Calm   3 mph 78% 0 in WeatherCatV3.04B91 W/m2
14:15 77.6 °F 70.18 °F 29.64 in Calm   2 mph 78% 0 in WeatherCatV3.04B91 W/m2
14:20 77.6 °F 70.18 °F 29.64 in Calm     78% 0 in WeatherCatV3.04B91 W/m2
14:25 77.6 °F 70.18 °F 29.64 in Calm     78% 0 in WeatherCatV3.04B91 W/m2
14:30 77.4 °F 69.98 °F 29.64 in SW 4 mph 7 mph 78% 0 in WeatherCatV3.04B91 W/m2
14:35 77.4 °F 69.98 °F 29.64 in SW 4 mph 9 mph 78% 0 in WeatherCatV3.04B91 W/m2
14:40 77.4 °F 69.98 °F 29.64 in WSW 2 mph 5 mph 78% 0 in WeatherCatV3.04B91 W/m2
14:45 77.4 °F 69.98 °F 29.63 in SW 3 mph 4 mph 78% 0 in WeatherCatV3.04B91 W/m2
14:50 77.4 °F 69.98 °F 29.63 in Calm   1 mph 78% 0 in WeatherCatV3.04B91 W/m2
14:55 77.4 °F 69.98 °F 29.63 in Calm   3 mph 78% 0 in WeatherCatV3.04B91 W/m2
15:00 77.6 °F 70.18 °F 29.63 in Calm   5 mph 78% 0 in WeatherCatV3.04B91 W/m2
15:05 77.6 °F 70.18 °F 29.63 in Calm     78% 0 in WeatherCatV3.04B91 W/m2
15:10 78.1 °F 70.66 °F 29.63 in WSW 2 mph 5 mph 78% 0 in WeatherCatV3.04B91 W/m2
15:15 79.2 °F 71.35 °F 29.63 in Calm   3 mph 77% 0 in WeatherCatV3.04B91 W/m2
15:20 79.9 °F 70.85 °F 29.63 in SW 2 mph 4 mph 74% 0 in WeatherCatV3.04B91 W/m2
15:25 80.5 °F 71.43 °F 29.63 in SSW 5 mph 5 mph 74% 0 in WeatherCatV3.04B91 W/m2
15:30 80.5 °F 70.62 °F 29.62 in WSW 2 mph 6 mph 72% 0 in WeatherCatV3.04B91 W/m2
15:35 80.5 °F 70.62 °F 29.62 in SW 5 mph 6 mph 72% 0 in WeatherCatV3.04B91 W/m2
15:40 81.4 °F 71.48 °F 29.62 in Calm   3 mph 72% 0 in WeatherCatV3.04B91 W/m2
15:45 82.4 °F 71.18 °F 29.62 in Calm   3 mph 69% 0 in WeatherCatV3.04B91 W/m2
15:50 83 °F 70.88 °F 29.62 in Calm     67% 0 in WeatherCatV3.04B91 W/m2
15:55 83.4 °F 70.37 °F 29.62 in Calm   4 mph 65% 0 in WeatherCatV3.04B91 W/m2
16:00 82.8 °F 69.8 °F 29.62 in Calm   5 mph 65% 0 in WeatherCatV3.04B91 W/m2
16:05 81.8 °F 69.74 °F 29.62 in SW 1 mph 6 mph 67% 0 in WeatherCatV3.04B91 W/m2
16:10 81.4 °F 69.8 °F 29.62 in Calm   5 mph 68% 0 in WeatherCatV3.04B91 W/m2
16:15 81.2 °F 70.46 °F 29.62 in Calm   4 mph 70% 0 in WeatherCatV3.04B91 W/m2
16:20 81.8 °F 70.61 °F 29.62 in Calm   2 mph 69% 0 in WeatherCatV3.04B91 W/m2
16:25 82 °F 70.37 °F 29.62 in Calm   7 mph 68% 0 in WeatherCatV3.04B91 W/m2
16:30 82 °F 70.37 °F 29.62 in Calm   5 mph 68% 0 in WeatherCatV3.04B91 W/m2
16:35 82.2 °F 70.56 °F 29.62 in Calm   5 mph 68% 0 in WeatherCatV3.04B91 W/m2
16:40 82 °F 70.37 °F 29.62 in SW 1 mph 6 mph 68% 0 in WeatherCatV3.04B91 W/m2
16:45 81.8 °F 70.61 °F 29.62 in SSW 4 mph 4 mph 69% 0 in WeatherCatV3.04B91 W/m2
16:50 81.6 °F 70.84 °F 29.62 in SW 5 mph 6 mph 70% 0 in WeatherCatV3.04B91 W/m2
16:55 81.4 °F 70.65 °F 29.62 in SW 2 mph 3 mph 70% 0 in WeatherCatV3.04B91 W/m2
17:00 81.4 °F 71.07 °F 29.62 in Calm     71% 0 in WeatherCatV3.04B91 W/m2
17:05 81.6 °F 71.26 °F 29.62 in Calm   5 mph 71% 0 in WeatherCatV3.04B91 W/m2
17:10 81.8 °F 71.03 °F 29.62 in Calm     70% 0 in WeatherCatV3.04B91 W/m2
17:15 82 °F 71.22 °F 29.62 in Calm     70% 0 in WeatherCatV3.04B91 W/m2
17:20 82 °F 70.8 °F 29.62 in Calm     69% 0 in WeatherCatV3.04B91 W/m2
17:25 81.8 °F 70.18 °F 29.62 in Calm     68% 0 in WeatherCatV3.04B91 W/m2
17:30 81.8 °F 71.03 °F 29.62 in Calm   4 mph 70% 0 in WeatherCatV3.04B91 W/m2
17:35 81.8 °F 71.45 °F 29.62 in Calm   1 mph 71% 0 in WeatherCatV3.04B91 W/m2
17:40 81.8 °F 71.03 °F 29.62 in SSW 1 mph 4 mph 70% 0 in WeatherCatV3.04B91 W/m2
17:45 81.6 °F 70.84 °F 29.61 in Calm   4 mph 70% 0 in WeatherCatV3.04B91 W/m2
17:50 81.6 °F 70.84 °F 29.61 in Calm   3 mph 70% 0 in WeatherCatV3.04B91 W/m2
17:55 81.6 °F 70.84 °F 29.61 in SSW 1 mph 2 mph 70% 0 in WeatherCatV3.04B91 W/m2
18:00 81.6 °F 71.26 °F 29.61 in SW 1 mph 5 mph 71% 0 in WeatherCatV3.04B91 W/m2
18:05 81.6 °F 71.26 °F 29.61 in SW 2 mph 4 mph 71% 0 in WeatherCatV3.04B91 W/m2
18:10 81.6 °F 70.84 °F 29.61 in Calm   2 mph 70% 0 in WeatherCatV3.04B91 W/m2
18:15 81.4 °F 70.65 °F 29.61 in Calm   2 mph 70% 0 in WeatherCatV3.04B91 W/m2
18:20 81.6 °F 71.26 °F 29.61 in Calm   3 mph 71% 0 in WeatherCatV3.04B91 W/m2
18:25 81.4 °F 71.07 °F 29.61 in Calm   6 mph 71% 0 in WeatherCatV3.04B91 W/m2
18:30 81.2 °F 71.29 °F 29.62 in Calm     72% 0 in WeatherCatV3.04B91 W/m2
18:35 80.9 °F 71.41 °F 29.62 in Calm     73% 0 in WeatherCatV3.04B91 W/m2
18:40 80.7 °F 71.62 °F 29.62 in Calm   2 mph 74% 0 in WeatherCatV3.04B91 W/m2
18:45 80.5 °F 71.82 °F 29.62 in Calm     75% 0 in WeatherCatV3.04B91 W/m2
18:50 80.3 °F 71.63 °F 29.62 in Calm   4 mph 75% 0 in WeatherCatV3.04B91 W/m2
18:55 80.3 °F 72.41 °F 29.62 in Calm     77% 0 in WeatherCatV3.04B91 W/m2
19:00 79.9 °F 72.02 °F 29.61 in Calm     77% 0 in WeatherCatV3.04B91 W/m2
19:05 79.8 °F 72.31 °F 29.61 in Calm     78% 0 in WeatherCatV3.04B91 W/m2
19:10 79.4 °F 72.3 °F 29.61 in Calm     79% 0 in WeatherCatV3.04B91 W/m2
19:15 79 °F 71.91 °F 29.61 in Calm     79% 0 in WeatherCatV3.04B91 W/m2
19:20 78.6 °F 71.9 °F 29.61 in Calm     80% 0 in WeatherCatV3.04B91 W/m2
19:25 78.5 °F 72.17 °F 29.61 in Calm     81% 0 in WeatherCatV3.04B91 W/m2
19:30 78.3 °F 71.97 °F 29.61 in Calm     81% 0 in WeatherCatV3.04B91 W/m2
19:35 78.1 °F 72.14 °F 29.61 in Calm     82% 0 in WeatherCatV3.04B91 W/m2
19:40 77.9 °F 71.95 °F 29.61 in Calm     82% 0 in WeatherCatV3.04B91 W/m2
19:45 77.7 °F 72.11 °F 29.61 in Calm     83% 0 in WeatherCatV3.04B91 W/m2
19:50 77.7 °F 72.11 °F 29.61 in Calm     83% 0 in WeatherCatV3.04B91 W/m2
19:55 77.7 °F 72.11 °F 29.61 in Calm     83% 0 in WeatherCatV3.04B91 W/m2
20:00 77.7 °F 72.11 °F 29.61 in Calm     83% 0 in WeatherCatV3.04B91 W/m2
20:05 77.7 °F 72.11 °F 29.61 in Calm     83% 0 in WeatherCatV3.04B91 W/m2
20:10 77.7 °F 72.11 °F 29.61 in Calm     83% 0 in WeatherCatV3.04B91 W/m2
20:15 77.6 °F 72.01 °F 29.63 in Calm     83% 0 in WeatherCatV3.04B91 W/m2
20:20 77.6 °F 72.01 °F 29.63 in Calm   1 mph 83% 0 in WeatherCatV3.04B91 W/m2
20:25 77.4 °F 71.82 °F 29.63 in Calm     83% 0 in WeatherCatV3.04B91 W/m2
20:30 77.4 °F 71.82 °F 29.63 in Calm   2 mph 83% 0 in WeatherCatV3.04B91 W/m2
20:35 77.2 °F 71.62 °F 29.63 in Calm   5 mph 83% 0 in WeatherCatV3.04B91 W/m2
20:40 76.8 °F 71.23 °F 29.63 in SW 2 mph 2 mph 83% 0 in WeatherCatV3.04B91 W/m2
20:45 76.7 °F 71.49 °F 29.63 in SW 3 mph 4 mph 84% 0 in WeatherCatV3.04B91 W/m2
20:50 76.5 °F 71.29 °F 29.63 in Calm   1 mph 84% 0 in WeatherCatV3.04B91 W/m2
20:55 76.3 °F 71.1 °F 29.63 in Calm     84% 0 in WeatherCatV3.04B91 W/m2
21:00 76.1 °F 71.25 °F 29.66 in Calm   3 mph 85% 0 in WeatherCatV3.04B91 W/m2
21:05 76 °F 71.15 °F 29.66 in Calm   1 mph 85% 0 in WeatherCatV3.04B91 W/m2
21:10 75.6 °F 71.1 °F 29.66 in Calm   1 mph 86% 0 in WeatherCatV3.04B91 W/m2
21:15 75.4 °F 71.25 °F 29.65 in Calm     87% 0 in WeatherCatV3.04B91 W/m2
21:20 75.3 °F 71.15 °F 29.65 in Calm     87% 0 in WeatherCatV3.04B91 W/m2
21:25 75.1 °F 71.29 °F 29.65 in Calm     88% 0 in WeatherCatV3.04B91 W/m2
21:30 74.9 °F 71.43 °F 29.64 in Calm     89% 0 in WeatherCatV3.04B91 W/m2
21:35 74.7 °F 71.23 °F 29.64 in Calm     89% 0 in WeatherCatV3.04B91 W/m2
21:40 74.6 °F 71.46 °F 29.64 in Calm     90% 0 in WeatherCatV3.04B91 W/m2
21:45 73.7 °F 69.58 °F 29.68 in Calm   2 mph 87% 0 in WeatherCatV3.04B91 W/m2
21:50 71.8 °F 66.69 °F 29.68 in Calm   3 mph 84% 0 in WeatherCatV3.04B91 W/m2
21:55 70.4 °F 65.32 °F 29.68 in Calm     84% 0 in WeatherCatV3.04B91 W/m2
22:00 69.1 °F 64.39 °F 29.71 in East 5 mph 5 mph 85% 0.06 in WeatherCatV3.04B91 W/m2
22:05 67.6 °F 62.59 °F 29.71 in Calm   2 mph 84% 0.06 in WeatherCatV3.04B91 W/m2
22:10 67.1 °F 62.76 °F 29.71 in Calm   3 mph 86% 0.05 in WeatherCatV3.04B91 W/m2
22:15 66.8 °F 63.12 °F 29.70 in Calm   4 mph 88% 0.05 in WeatherCatV3.04B91 W/m2
22:20 66.4 °F 63.05 °F 29.70 in Calm     89% 0.05 in WeatherCatV3.04B91 W/m2
22:25 66.3 °F 62.95 °F 29.70 in Calm   2 mph 89% 0.04 in WeatherCatV3.04B91 W/m2
22:30 66.3 °F 63.27 °F 29.70 in Calm     90% 0 in WeatherCatV3.04B91 W/m2
22:35 66 °F 62.98 °F 29.70 in Calm     90% 0 in WeatherCatV3.04B91 W/m2
22:40 65.6 °F 62.58 °F 29.70 in Calm     90% 0 in WeatherCatV3.04B91 W/m2
22:45 65.5 °F 62.48 °F 29.69 in Calm     90% 0 in WeatherCatV3.04B91 W/m2
22:50 65.3 °F 62.6 °F 29.69 in Calm     91% 0 in WeatherCatV3.04B91 W/m2
22:55 65.3 °F 62.6 °F 29.69 in Calm     91% 0 in WeatherCatV3.04B91 W/m2
Bellevue, Nebraska, USA
Compliments of Weather Underground - 3.25 mb